Regional Weather Roundup
Issued by NWS

Home | Current Version | Previous Version | Graphics & Text | Print | Product List | Glossary On
Versions: 1 2 3 4 5 6 7 8 9 10 11 12 13 14 15 16 17 18 19 20 21 22 23 24 25 26 27 28 29 30 31 32 33 34 35 36 37 38 39 40 41 42 43 44 45 46 47 48 49 50
437
ASUS45 KBOI 240210
RWRID

IDAHO REGIONAL WEATHER ROUNDUP
NATIONAL WEATHER SERVICE BOISE ID
800 PM MDT TUE AUG 23 2016

NOTE: "FAIR" INDICATES FEW OR NO CLOUDS BELOW 12000 FEET
WITH NO SIGNIFICANT WEATHER AND/OR OBSTRUCTIONS TO VISIBILITY

IDZ012-014-240300-
SOUTHWEST IDAHO


CITY           SKY/WX    TMP DP  RH WIND       PRES   REMARKS
BOISE          CLEAR     78  24  13 NW13      30.05F
CALDWELL       CLEAR     77  34  21 W7        30.05S
MOUNTAIN HOME  CLEAR     77  23  13 NW20      30.04S
$$

IDZ016-017-240300-
SOUTHCENTRAL IDAHO


CITY           SKY/WX    TMP DP  RH WIND       PRES   REMARKS
BURLEY         CLEAR     66  34  30 SW12      30.07S
JEROME         CLEAR     71  23  16 SW9       30.08S
TWIN FALLS     CLEAR     70  22  16 SW7       30.10R
$$

IDZ019>023-240300-
SOUTHEAST IDAHO


CITY           SKY/WX    TMP DP  RH WIND       PRES   REMARKS
IDAHO FALLS    CLEAR     72  24  16 S14       30.08R
POCATELLO      CLEAR     71  23  16 SW12      30.09S
REXBURG        CLEAR     69  27  20 S8        30.08R
$$

IDZ006-010-011-018-031-032-240300-
CENTRAL IDAHO MOUNTAINS


CITY           SKY/WX    TMP DP  RH WIND       PRES   REMARKS
MCCALL         CLEAR     69  30  23 N10G17    30.17
HAILEY         CLEAR     72  25  17 SW8       30.10R
STANLEY          N/A     66  19  16 CALM      30.19S
SALMON         CLEAR     68  32  26 N9        30.09R
CHALLIS        CLEAR     70  25  18 N10       30.09R
$$

IDZ002-004-006-007-026-240300-
NORTHERN IDAHO


CITY           SKY/WX    TMP DP  RH WIND       PRES   REMARKS
LEWISTON       CLEAR     80  39  23 NW6       30.08S
LOWELL           N/A     69  43  38 VRB3      30.08S
COEUR D`ALENE  CLEAR     73  41  31 CALM      30.09S
MULLAN PASS    CLEAR     55  36  48 VRB5      30.27R
$$




USA.gov is the U.S. government's official web portal to all federal, state and local government web resources and services.